Total_Precipitation_Accumulation
1.87 2.11 2.12 1.81 1.92 1.68 1.46 1.38 1.95 2.37 2.22 2.03 1.95 2.28 2.33 2.31 2.86 4.11 3.97 2.52 2.85 3.06 1.49 0.99 0.97 0.65 0.93 1.16 1.65 1.69 1.78 2.01 2.67 2.93 2.48 1.97 1.19 0.75 0.65 0.62 0.67 0.86 1.42 1.51 1.44 1.48 0.78 0.16 0.21 0.54 0.52 0.32 0.84 1.40
1.82 2.03 1.80 1.56 1.61 1.55 1.44 1.31 1.40 1.57 1.88 1.91 1.86 2.03 2.15 2.03 2.40 3.46 4.96 3.51 2.78 3.98 2.28 0.90 0.80 0.65 0.44 0.72 0.99 1.72 1.82 1.56 1.85 2.30 2.09 1.63 1.47 1.18 0.78 0.79 0.87 1.00 0.82 0.92 1.10 1.12 0.51 0.18 0.26 0.32 0.30 0.56 1.06 1.17
1.67 1.84 1.87 1.56 1.36 1.23 1.32 1.42 1.41 1.27 1.15 1.56 1.76 1.79 2.02 2.00 2.26 2.82 4.30 3.43 4.37 5.05 3.58 1.25 1.02 0.73 0.42 0.41 0.63 1.60 1.10 1.28 1.67 1.69 2.06 1.79 1.57 1.01 0.96 0.84 0.97 0.76 0.55 0.76 0.50 0.29 0.16 0.16 0.17 0.12 0.15 0.29 0.94 0.90
1.60 1.75 1.79 1.74 1.34 1.15 0.98 1.22 1.56 1.47 1.35 1.22 1.70 1.71 1.87 2.16 2.46 2.78 3.84 3.56 4.47 4.93 3.77 1.83 0.82 0.84 0.81 0.50 0.52 0.65 0.50 0.72 1.15 1.56 2.10 1.91 1.31 0.90 0.95 0.62 0.67 1.12 1.18 0.93 0.67 0.41 0.31 0.19 0.21 0.30 0.33 0.45 0.52 0.84
1.62 1.83 1.89 1.67 1.41 1.15 1.00 1.22 1.73 1.76 1.80 1.59 1.73 2.12 2.20 2.48 2.69 3.08 3.66 3.12 3.38 2.98 2.71 2.06 1.00 0.64 0.85 0.75 0.64 0.50 0.63 0.76 1.08 1.73 1.95 1.37 0.79 0.88 0.65 0.67 1.01 0.89 1.29 1.26 1.28 0.67 0.80 0.50 0.55 0.70 0.65 0.47 0.52 0.41
1.74 1.63 1.56 1.51 1.37 1.30 1.22 1.50 1.74 1.90 1.82 2.12 1.98 2.40 2.54 2.74 3.32 5.50 7.40 4.54 2.65 2.20 3.36 2.55 1.72 0.92 1.14 1.20 1.25 1.19 0.79 1.07 1.27 1.52 1.24 0.91 0.67 1.21 1.22 0.75 0.49 0.37 0.84 1.30 1.55 1.03 1.03 0.92 0.86 0.50 0.46 0.51 0.54 0.49
1.57 1.53 1.48 1.33 1.26 1.41 1.56 1.59 1.86 1.80 1.99 2.22 2.20 2.03 2.02 2.89 4.27 5.55 3.63 2.54 1.72 2.72 4.59 2.84 1.86 1.31 1.36 1.49 1.43 2.04 1.84 1.89 1.56 1.58 1.14 0.58 0.55 1.44 1.34 0.55 0.20 0.26 0.38 0.76 1.43 1.58 1.72 1.28 1.32 0.94 0.46 0.33 0.37 0.20
1.57 1.42 1.29 1.20 1.19 1.18 1.59 1.86 2.02 2.24 2.43 2.62 2.39 2.15 2.63 4.15 4.86 3.35 1.41 1.78 2.14 3.27 3.49 2.83 2.09 2.20 1.75 1.96 1.61 1.40 1.91 2.26 2.18 1.72 0.95 0.72 0.72 1.09 0.97 0.15 0.08 0.11 0.10 0.23 0.39 0.35 0.72 0.78 0.60 0.49 0.24 0.09 0.07 0.10
1.42 1.24 1.29 1.10 0.97 1.00 1.21 1.59 2.06 2.67 2.78 3.51 3.80 4.16 6.12 7.52 5.86 2.55 1.68 2.69 2.89 4.02 3.31 1.76 1.41 2.30 1.80 1.88 1.79 1.40 1.47 2.24 1.84 1.64 0.95 0.93 0.99 0.94 0.39 0.16 0.12 0.08 0.07 0.04 0.03 0.11 0.09 0.15 0.14 0.10 0.12 0.13 0.19 0.18
1.52 1.25 1.29 1.06 0.95 0.99 1.22 1.58 2.22 3.31 4.37 5.43 6.57 7.72 8.01 4.68 2.32 2.80 5.27 5.53 4.84 3.57 2.16 1.29 0.76 1.80 2.12 1.64 2.04 2.22 2.20 1.60 1.54 0.81 0.78 1.01 0.64 0.48 0.37 0.32 0.24 0.14 0.06 0.06 0.18 0.24 0.19 0.16 0.12 0.11 0.15 0.16 0.15 0.12
1.45 1.38 1.13 1.02 1.14 1.35 1.76 2.12 2.94 4.86 6.33 6.43 6.09 5.04 4.01 2.81 2.87 3.74 4.71 3.55 2.57 1.69 0.89 0.70 0.60 1.05 1.40 1.56 1.68 1.91 2.23 1.65 1.34 0.76 0.74 0.88 0.67 0.45 0.42 0.44 0.34 0.32 0.21 0.16 0.13 0.12 0.12 0.18 0.27 0.23 0.13 0.07 0.07 0.12
1.34 1.09 0.87 0.99 1.07 1.21 1.62 2.57 3.64 4.18 3.79 3.10 3.03 3.47 4.28 4.15 3.85 3.34 2.74 1.68 0.75 0.48 0.45 0.44 0.80 1.14 1.40 1.70 2.24 2.29 1.86 1.51 1.03 0.99 1.22 0.91 0.79 0.62 0.47 0.57 0.34 0.17 0.12 0.11 0.17 0.26 0.28 0.26 0.21 0.23 0.26 0.29 0.38 0.47
1.17 0.82 0.69 0.82 0.92 1.34 2.19 2.77 2.42 2.00 2.03 2.47 2.77 3.63 3.73 3.32 2.95 1.98 1.18 0.74 0.48 0.34 0.31 0.32 1.11 1.32 1.40 1.79 2.52 2.62 2.15 1.54 1.21 2.25 1.45 0.74 0.61 0.86 0.63 0.35 0.27 0.15 0.18 0.26 0.21 0.13 0.13 0.17 0.24 0.31 0.41 0.47 0.44 0.46
0.99 0.89 0.91 0.97 1.13 1.62 2.60 2.67 2.93 2.62 2.12 2.19 2.44 2.63 2.17 1.69 1.22 0.83 0.60 0.45 0.29 0.28 0.40 0.55 0.88 0.98 1.18 1.48 1.72 1.93 1.71 1.69 1.84 1.41 1.01 1.06 1.01 0.76 0.37 0.25 0.30 0.36 0.34 0.42 0.51 0.37 0.34 0.33 0.37 0.43 0.44 0.44 0.34 0.40
0.89 0.90 1.06 1.44 1.56 1.92 2.52 2.93 3.04 2.33 1.93 1.94 1.44 1.31 0.98 1.00 0.74 0.54 0.45 0.42 0.42 0.68 1.09 1.58 1.41 1.08 1.31 1.58 1.19 1.39 1.47 1.42 1.04 1.14 1.36 1.15 0.90 0.66 0.53 0.47 0.41 0.53 0.61 0.68 0.78 0.87 0.81 0.65 0.49 0.64 0.65 0.55 0.41 0.47
0.81 1.36 1.69 1.43 1.44 2.01 2.70 2.93 2.83 2.02 1.75 0.94 0.94 1.05 1.05 0.90 0.78 0.70 0.62 0.72 0.80 1.08 1.58 2.08 1.77 1.31 1.43 1.00 0.97 0.86 0.93 1.25 1.16 1.10 0.88 0.49 0.43 0.44 0.53 0.60 0.64 0.71 0.74 0.78 0.82 0.83 0.95 0.99 0.92 0.89 0.90 0.81 0.80 0.70
1.14 1.72 1.29 1.23 1.70 2.36 2.78 2.39 1.63 1.54 1.12 0.83 1.02 0.87 0.94 0.95 0.76 0.77 0.74 0.78 0.88 1.38 1.55 1.58 1.57 1.20 1.17 0.84 0.65 0.80 1.22 1.18 0.95 0.87 0.61 0.49 0.55 0.63 0.68 0.63 0.62 0.66 0.81 0.82 0.81 0.80 0.80 0.80 0.74 0.67 0.81 0.94 0.82 0.81
1.35 0.73 0.80 1.13 1.59 2.39 2.28 1.34 1.29 0.99 0.80 0.81 0.93 1.10 0.73 0.86 0.88 0.82 0.78 0.85 0.92 1.03 1.11 1.15 0.84 0.52 0.59 0.72 0.96 1.25 1.27 1.05 0.74 0.71 0.74 0.80 0.78 0.84 0.75 0.59 0.67 0.63 0.68 0.80 0.67 0.72 0.67 0.58 0.53 0.61 0.59 0.64 0.59 0.66
0.91 0.58 0.66 0.82 1.01 1.59 1.74 1.05 0.57 0.72 0.82 0.82 0.92 0.85 0.72 0.97 1.19 1.13 1.00 0.89 0.75 0.74 0.94 0.74 0.78 0.68 0.77 1.00 1.22 1.08 0.94 0.82 0.85 0.94 1.02 1.10 1.02 0.86 0.82 0.71 0.68 0.68 0.64 0.73 0.65 0.63 0.69 0.65 0.53 0.49 0.49 0.51 0.52 0.62
1.40 1.37 0.99 0.95 1.40 1.98 1.43 0.87 0.37 0.36 0.65 0.65 0.75 0.65 0.66 1.00 0.96 0.85 0.66 0.59 0.60 0.86 0.89 0.74 0.87 1.05 1.20 1.19 1.25 1.26 1.04 0.89 0.72 0.75 1.01 1.16 1.24 0.94 0.96 0.79 0.78 0.75 0.58 0.61 0.67 0.60 0.56 0.60 0.61 0.52 0.51 0.58 0.56 0.54
1.47 1.73 1.32 1.09 1.46 1.26 1.01 0.76 0.67 0.39 0.47 0.59 0.63 0.43 0.67 0.45 0.42 0.45 0.40 0.27 0.47 0.79 0.91 1.09 1.17 1.16 1.17 1.25 1.12 0.94 0.89 0.72 0.76 0.66 0.72 0.89 1.10 0.80 0.87 0.91 0.73 0.63 0.52 0.57 0.53 0.62 0.55 0.59 0.69 0.62 0.51 0.47 0.48 0.45
0.80 0.93 1.16 1.02 1.22 1.14 1.14 0.51 0.38 0.49 0.45 0.56 0.49 0.37 0.47 0.47 0.35 0.29 0.23 0.42 0.84 1.14 1.08 1.05 1.02 0.95 0.79 0.88 0.98 0.90 1.03 0.72 0.71 0.69 0.76 0.69 0.75 0.74 0.79 0.86 0.63 0.57 0.54 0.53 0.46 0.48 0.49 0.48 0.50 0.51 0.46 0.36 0.31 0.33
0.45 0.65 0.91 0.93 0.96 0.65 0.58 0.38 0.48 0.59 0.58 0.61 0.43 0.39 0.43 0.40 0.35 0.23 0.47 0.62 1.05 1.32 1.08 0.85 0.90 0.88 0.83 0.96 0.70 0.70 0.90 0.67 0.76 0.94 0.93 0.87 0.82 0.78 0.69 0.66 0.60 0.55 0.53 0.53 0.42 0.35 0.31 0.31 0.32 0.35 0.35 0.36 0.34 0.31
0.55 0.73 0.83 0.82 0.64 0.42 0.28 0.36 0.40 0.46 0.46 0.42 0.45 0.40 0.46 0.37 0.23 0.41 0.67 0.93 1.12 0.82 0.66 0.78 0.78 0.87 0.88 0.70 0.68 0.74 0.95 0.71 0.67 0.81 0.93 0.71 0.58 0.68 0.53 0.49 0.44 0.45 0.45 0.40 0.29 0.26 0.24 0.23 0.23 0.28 0.32 0.33 0.29 0.29
1.40 1.04 0.70 0.53 0.39 0.44 0.36 0.26 0.24 0.36 0.55 0.51 0.63 0.67 0.74 0.51 0.69 0.67 0.81 1.08 0.78 0.69 0.70 0.73 0.71 0.70 0.68 0.79 0.81 0.76 0.73 0.72 0.69 0.69 0.92 0.76 0.67 0.59 0.50 0.45 0.40 0.42 0.33 0.31 0.38 0.37 0.32 0.28 0.27 0.23 0.17 0.17 0.19 0.23
0.67 0.54 0.62 0.55 0.53 0.55 0.57 0.52 0.55 0.47 0.40 0.41 0.51 0.42 0.26 0.37 0.55 0.97 1.06 1.15 0.83 0.82 0.85 0.87 0.85 0.70 0.70 0.74 0.67 0.60 0.62 0.64 0.63 0.51 0.73 0.63 0.64 0.64 0.51 0.43 0.41 0.46 0.29 0.28 0.35 0.33 0.29 0.24 0.20 0.17 0.19 0.19 0.20 0.27
0.50 0.28 0.23 0.22 0.24 0.28 0.32 0.35 0.37 0.37 0.45 0.54 0.50 0.39 0.49 0.59 0.64 0.78 0.74 0.71 0.71 0.82 0.75 0.74 0.67 0.67 0.72 0.69 0.64 0.61 0.51 0.45 0.45 0.50 0.57 0.49 0.47 0.51 0.56 0.62 0.57 0.55 0.33 0.29 0.30 0.35 0.37 0.33 0.30 0.26 0.27 0.29 0.25 0.35
0.31 0.16 0.20 0.21 0.23 0.24 0.27 0.26 0.34 0.39 0.40 0.33 0.34 0.40 0.50 0.52 0.74 0.80 0.74 0.77 0.65 0.54 0.43 0.38 0.35 0.36 0.41 0.44 0.46 0.44 0.40 0.44 0.49 0.46 0.42 0.43 0.47 0.56 0.49 0.38 0.31 0.27 0.25 0.26 0.26 0.29 0.33 0.37 0.36 0.36 0.33 0.37 0.34 0.30
0.23 0.24 0.25 0.30 0.26 0.26 0.40 0.44 0.51 0.40 0.34 0.34 0.38 0.43 0.47 0.54 0.81 0.73 0.66 0.54 0.51 0.42 0.36 0.33 0.32 0.21 0.18 0.16 0.17 0.25 0.36 0.41 0.44 0.44 0.39 0.45 0.57 0.60 0.40 0.31 0.27 0.27 0.25 0.23 0.22 0.26 0.27 0.30 0.30 0.31 0.38 0.45 0.40 0.43
0.15 0.15 0.25 0.20 0.25 0.37 0.50 0.31 0.38 0.27 0.16 0.13 0.14 0.21 0.27 0.59 0.90 0.71 0.51 0.43 0.37 0.39 0.38 0.31 0.28 0.23 0.22 0.20 0.17 0.18 0.34 0.37 0.38 0.46 0.43 0.38 0.44 0.42 0.37 0.35 0.32 0.31 0.33 0.35 0.35 0.31 0.32 0.31 0.33 0.41 0.42 0.43 0.52 0.58
0.07 0.12 0.14 0.16 0.29 0.44 0.35 0.28 0.25 0.19 0.13 0.10 0.10 0.16 0.33 0.48 0.54 0.39 0.31 0.38 0.32 0.30 0.25 0.22 0.23 0.24 0.22 0.25 0.32 0.31 0.36 0.32 0.26 0.29 0.34 0.37 0.37 0.38 0.36 0.32 0.33 0.36 0.37 0.37 0.35 0.36 0.39 0.39 0.45 0.51 0.47 0.42 0.46 0.45
0.10 0.15 0.17 0.16 0.28 0.27 0.35 0.40 0.28 0.21 0.19 0.16 0.27 0.27 0.38 0.35 0.39 0.44 0.31 0.32 0.31 0.24 0.27 0.28 0.29 0.32 0.35 0.41 0.46 0.46 0.40 0.34 0.28 0.28 0.28 0.30 0.35 0.36 0.31 0.24 0.25 0.29 0.31 0.32 0.33 0.38 0.41 0.46 0.57 0.48 0.41 0.40 0.40 0.39
0.10 0.12 0.16 0.16 0.20 0.22 0.21 0.25 0.17 0.18 0.20 0.29 0.38 0.31 0.32 0.35 0.50 0.58 0.31 0.32 0.48 0.40 0.37 0.42 0.44 0.44 0.47 0.47 0.47 0.40 0.33 0.32 0.29 0.29 0.26 0.25 0.26 0.26 0.25 0.25 0.25 0.26 0.27 0.29 0.31 0.35 0.36 0.37 0.43 0.43 0.46 0.47 0.46 0.42